Regional Weather Roundup
Issued by NWS

Home | Current Version | Previous Version | Text Only | Print | Product List | Glossary Off
Versions: 1 2 3 4 5 6 7 8 9 10 11 12 13 14 15 16 17 18 19 20 21 22 23 24 25 26 27 28 29 30 31 32 33 34 35 36 37 38 39 40 41 42 43 44 45 46 47 48 49 50

781
ASUS43 KLMK 140110
RWRKY
KENTUCKY REGIONAL WEATHER ROUNDUP
NATIONAL WEATHER SERVICE LOUISVILLE KY
800 PM EST SAT FEB 13 2016

NOTE "FAIR" INDICATES FEW OR NO CLOUDS BELOW 12,000 FEET
WITH NO SIGNIFICANT WEATHER AND/OR OBSTRUCTIONS TO VISIBILITY.

KYZ001>023-026-027-061>063-070>075-140200-
WESTERN AND SOUTH CENTRAL KENTUCKY

CITY           SKY/WX    TMP DP  RH WIND       PRES   REMARKS
PADUCAH        CLOUDY    26   5  40 NE7       30.50F WCI  18
HENDERSON      CLOUDY    23   3  42 NE5       30.53F WCI  17
OWENSBORO      CLOUDY    23   1  38 NE6       30.53F WCI  16
HOPKINSVILLE   CLOUDY    25   4  40 N9        30.49F WCI  16
BOWLING GREEN  CLEAR     26   3  37 N5        30.51F WCI  20
GLASGOW        CLOUDY    25   6  44 NE5       30.49F WCI  19
$$

KYZ024-025-028>034-038-045-046-053-140200-
NORTH CENTRAL KENTUCKY

CITY           SKY/WX    TMP DP  RH WIND       PRES   REMARKS
LOUISVILLE/SDF PTCLDY    22  -1  36 NW5       30.52F WCI  16
LOUISVILLE/LOU CLEAR     22   1  40 NE3       30.53S
FORT KNOX      CLOUDY    20   2  45 N3        30.48S
$$

KYZ035>037-039>044-047>052-055>060-089>105-140200-
NORTHEAST KENTUCKY

CITY           SKY/WX    TMP DP  RH WIND       PRES   REMARKS
LEXINGTON      PTCLDY    18   2  49 CALM      30.49S
COVINGTON      CLOUDY    14   1  56 CALM      30.50F
FRANKFORT      CLEAR     17   1  49 CALM      30.49F
$$

KYZ054-064>069-076>088-106>120-140200-
SOUTHEAST KENTUCKY

CITY           SKY/WX    TMP DP  RH WIND       PRES   REMARKS
JACKSON        CLEAR     16   0  49 N3        30.45S
LONDON         CLEAR     18   2  49 NE5       30.46F WCI  11
SOMERSET       PTCLDY    19   5  53 NE5       30.50S WCI  13
MIDDLESBORO    CLEAR     19  10  65 N3        30.46S
MONTICELLO     CLEAR     19   8  62 N13       30.50R WCI   6
$$





USA.gov is the U.S. government's official web portal to all federal, state and local government web resources and services.